Location: DaVinci Observatory
(43.1080°N, 78.6453°W)
Time: 04:52:31
(UTC-04:00)

Tiangong 1 - Pass Details

Date: 10 October 2017
Orbit: 293 x 320 km, 42.8° (Epoch: 19 October)

Event Time Altitude Azimuth Distance (km) Brightness Sun altitude
Rises 20:55:08 0° 277° (W) 2,031 6.1 -25.4°
Reaches altitude 10° 20:57:08 10° 273° (W) 1,196 4.5 -25.7°
Enters shadow 20:57:30 13° 272° (W) 1,045 4.1 -25.8°
